User: anonymous   Login
Location: Unspecified
(0.0000°N, 0.0000°E)
Time: 11:30:07
(UTC+01:00)
Language:

Cosmos 1898 Rocket - Orbit

View from above orbital plane
View from above orbital plane
View from above satellite
View from above satellite

Ground track
Ground track

The orbit data is extracted from the following two-line orbital elements,

1 18586U 87098B   17022.10305612  .00000170  00000-0  66363-4 0  9996
2 18586  74.0049 204.3293 0021964 294.2606 205.3271 14.36760200526381
Epoch (UTC): 22 January 2017 02:28:24
Eccentricity: 0.0021964
inclination: 74.0049°
perigee height: 753 km
apogee height: 785 km
right ascension of ascending node: 204.3293°
argument of perigee: 294.2606°
revolutions per day: 14.36760200
mean anomaly at epoch: 205.3271°
orbit number at epoch: 52638

The dashed part of the orbit path shows where the satellite is in the earth's shadow,  

DLR